Time,TemperatureF,DewpointF,PressureIn,WindDirection,WindDirectionDegrees,WindSpeedMPH,WindSpeedGustMPH,Humidity,HourlyPrecipIn,Conditions,Clouds,dailyrainin,SoftwareType,DateUTC
2013-02-20 00:02:00,15.8,2.5,29.41,WNW,292,5.4,6.3,55,0.00,,---,0.00,VWS V14.01,2013-02-20 06:02:00,
2013-02-20 00:07:00,15.6,2.7,29.41,North,0,5.6,8.1,56,0.00,,---,0.00,VWS V14.01,2013-02-20 06:07:00,
2013-02-20 00:12:00,15.4,2.6,29.41,NW,315,6.3,6.5,56,0.00,,---,0.00,VWS V14.01,2013-02-20 06:12:00,
2013-02-20 00:17:00,15.4,2.6,29.41,NNE,22,5.4,5.4,56,0.00,,---,0.00,VWS V14.01,2013-02-20 06:17:00,
2013-02-20 00:37:00,14.4,1.5,29.41,NW,315,4.0,4.0,56,0.00,,---,0.00,VWS V14.01,2013-02-20 06:37:00,
2013-02-20 00:42:00,14.4,1.5,29.41,NNW,338,3.8,3.8,56,0.00,,---,0.00,VWS V14.01,2013-02-20 06:42:00,
2013-02-20 00:47:00,13.6,0.9,29.41,North,0,6.3,6.3,56,0.00,,---,0.00,VWS V14.01,2013-02-20 06:47:00,
2013-02-20 00:52:00,13.5,0.7,29.41,North,0,4.9,4.9,56,0.00,,---,0.00,VWS V14.01,2013-02-20 06:52:00,
2013-02-20 00:57:00,13.3,0.5,29.41,NNW,338,3.1,3.1,56,0.00,,---,0.00,VWS V14.01,2013-02-20 06:57:00,
2013-02-20 01:02:00,13.5,0.7,29.41,NW,315,3.8,3.8,56,0.00,,---,0.00,VWS V14.01,2013-02-20 07:02:00,
2013-02-20 01:07:00,13.3,0.5,29.44,North,0,3.8,3.8,56,0.00,,---,0.00,VWS V14.01,2013-02-20 07:07:00,
2013-02-20 01:12:00,13.3,0.5,29.44,NNW,338,3.1,3.1,56,0.00,,---,0.00,VWS V14.01,2013-02-20 07:12:00,
2013-02-20 01:18:00,12.9,0.2,29.44,NNW,338,3.6,4.9,56,0.00,,---,0.00,VWS V14.01,2013-02-20 07:18:00,
2013-02-20 01:23:00,12.7,0.0,29.44,WSW,248,4.9,4.9,56,0.00,,---,0.00,VWS V14.01,2013-02-20 07:23:00,
2013-02-20 01:28:00,12.6,-0.2,29.44,WSW,248,2.0,2.9,56,0.00,,---,0.00,VWS V14.01,2013-02-20 07:28:00,
2013-02-20 01:33:00,12.6,-0.2,29.44,NNW,338,3.4,5.8,56,0.00,,---,0.00,VWS V14.01,2013-02-20 07:33:00,
2013-02-20 01:38:00,12.6,-0.2,29.44,North,0,6.3,6.3,56,0.00,,---,0.00,VWS V14.01,2013-02-20 07:38:00,
2013-02-20 01:43:00,12.4,-0.3,29.44,NNW,338,7.6,7.6,56,0.00,,---,0.00,VWS V14.01,2013-02-20 07:43:00,
2013-02-20 01:48:00,12.0,-0.6,29.44,NNW,338,3.8,3.8,56,0.00,,---,0.00,VWS V14.01,2013-02-20 07:48:00,
2013-02-20 01:53:00,12.0,-0.6,29.44,North,0,4.9,6.3,56,0.00,,---,0.00,VWS V14.01,2013-02-20 07:53:00,
2013-02-20 01:58:00,11.8,-0.8,29.44,NNW,338,2.7,2.9,56,0.00,,---,0.00,VWS V14.01,2013-02-20 07:58:00,
2013-02-20 02:05:00,11.8,-0.8,29.44,North,0,3.4,3.4,56,0.00,,---,0.00,VWS V14.01,2013-02-20 08:05:00,
2013-02-20 02:10:00,11.5,-1.2,29.44,NW,315,4.0,5.8,56,0.00,,---,0.00,VWS V14.01,2013-02-20 08:10:00,
2013-02-20 02:15:00,11.1,-1.5,29.44,WNW,292,3.8,3.8,56,0.00,,---,0.00,VWS V14.01,2013-02-20 08:15:00,
2013-02-20 02:20:00,11.1,-1.5,29.44,North,0,3.6,6.0,56,0.00,,---,0.00,VWS V14.01,2013-02-20 08:20:00,
2013-02-20 02:25:00,10.9,-1.7,29.44,NNW,338,2.5,3.4,56,0.00,,---,0.00,VWS V14.01,2013-02-20 08:25:00,
2013-02-20 02:30:00,10.8,-1.8,29.44,North,0,4.3,4.3,56,0.00,,---,0.00,VWS V14.01,2013-02-20 08:30:00,
2013-02-20 02:35:00,10.6,-2.0,29.44,NNW,338,2.0,2.0,56,0.00,,---,0.00,VWS V14.01,2013-02-20 08:35:00,
2013-02-20 02:40:00,10.4,-2.2,29.44,NW,315,2.9,5.4,56,0.00,,---,0.00,VWS V14.01,2013-02-20 08:40:00,
2013-02-20 02:45:00,10.4,-2.2,29.44,North,0,5.6,5.6,56,0.00,,---,0.00,VWS V14.01,2013-02-20 08:45:00,
2013-02-20 02:50:00,10.6,-2.0,29.44,NNW,338,4.5,5.8,56,0.00,,---,0.00,VWS V14.01,2013-02-20 08:50:00,
2013-02-20 02:55:00,10.8,-1.8,29.44,NW,315,2.2,5.8,56,0.00,,---,0.00,VWS V14.01,2013-02-20 08:55:00,
2013-02-20 03:00:00,10.0,-2.5,29.44,NW,315,3.6,3.6,56,0.00,,---,0.00,VWS V14.01,2013-02-20 09:00:00,
2013-02-20 03:05:00,10.2,-2.3,29.44,NNW,338,5.6,5.6,56,0.00,,---,0.00,VWS V14.01,2013-02-20 09:05:00,
2013-02-20 03:10:00,10.2,-2.3,29.44,North,0,2.9,3.6,56,0.00,,---,0.00,VWS V14.01,2013-02-20 09:10:00,
2013-02-20 03:16:00,10.2,-2.3,29.44,NNW,338,4.3,5.6,56,0.00,,---,0.00,VWS V14.01,2013-02-20 09:16:00,
2013-02-20 03:21:00,10.0,-2.5,29.44,NNW,338,3.4,3.6,56,0.00,,---,0.00,VWS V14.01,2013-02-20 09:21:00,
2013-02-20 03:26:00,10.0,-2.5,29.44,WNW,292,4.0,7.8,56,0.00,,---,0.00,VWS V14.01,2013-02-20 09:26:00,
2013-02-20 03:31:00,10.4,-2.2,29.44,NW,315,2.7,6.0,56,0.00,,---,0.00,VWS V14.01,2013-02-20 09:31:00,
2013-02-20 03:36:00,10.2,-2.3,29.47,NW,315,3.4,3.4,56,0.00,,---,0.00,VWS V14.01,2013-02-20 09:36:00,
2013-02-20 03:41:00,10.0,-2.5,29.47,NW,315,3.1,4.0,56,0.00,,---,0.00,VWS V14.01,2013-02-20 09:41:00,
2013-02-20 03:46:00,10.0,-2.5,29.47,NW,315,4.3,4.7,56,0.00,,---,0.00,VWS V14.01,2013-02-20 09:46:00,
2013-02-20 03:51:00,10.0,-2.5,29.47,NNW,338,2.5,4.0,56,0.00,,---,0.00,VWS V14.01,2013-02-20 09:51:00,
2013-02-20 03:56:00,10.0,-2.5,29.47,North,0,5.6,6.3,56,0.00,,---,0.00,VWS V14.01,2013-02-20 09:56:00,
2013-02-20 04:01:00,10.0,-2.5,29.47,West,270,2.5,2.7,56,0.00,,---,0.00,VWS V14.01,2013-02-20 10:01:00,
2013-02-20 04:06:00,9.7,-2.8,29.47,WSW,248,4.9,4.9,56,0.00,,---,0.00,VWS V14.01,2013-02-20 10:06:00,
2013-02-20 04:11:00,9.3,-3.2,29.47,NW,315,7.6,7.6,56,0.00,,---,0.00,VWS V14.01,2013-02-20 10:11:00,
2013-02-20 04:16:00,9.3,-3.2,29.47,North,0,4.0,4.0,56,0.00,,---,0.00,VWS V14.01,2013-02-20 10:16:00,
2013-02-20 04:21:00,9.5,-3.0,29.47,NNW,338,4.3,4.3,56,0.00,,---,0.00,VWS V14.01,2013-02-20 10:21:00,
2013-02-20 04:26:00,9.5,-3.0,29.47,NNE,22,4.0,4.0,56,0.00,,---,0.00,VWS V14.01,2013-02-20 10:26:00,
2013-02-20 04:31:00,9.5,-3.0,29.47,NW,315,3.1,3.1,56,0.00,,---,0.00,VWS V14.01,2013-02-20 10:31:00,
2013-02-20 04:36:00,9.5,-3.0,29.47,NNW,338,2.9,2.9,56,0.00,,---,0.00,VWS V14.01,2013-02-20 10:36:00,
2013-02-20 04:41:00,9.1,-3.4,29.47,NNW,338,3.6,4.9,56,0.00,,---,0.00,VWS V14.01,2013-02-20 10:41:00,
2013-02-20 04:46:00,9.5,-3.0,29.47,NNW,338,3.4,3.4,56,0.00,,---,0.00,VWS V14.01,2013-02-20 10:46:00,
2013-02-20 04:51:00,9.3,-3.2,29.47,NW,315,3.8,3.8,56,0.00,,---,0.00,VWS V14.01,2013-02-20 10:51:00,
2013-02-20 04:56:00,9.3,-3.2,29.47,West,270,5.4,5.4,56,0.00,,---,0.00,VWS V14.01,2013-02-20 10:56:00,
2013-02-20 05:02:00,9.1,-3.4,29.47,WNW,292,2.9,4.0,56,0.00,,---,0.00,VWS V14.01,2013-02-20 11:02:00,
2013-02-20 05:07:00,9.1,-3.4,29.47,NW,315,6.3,8.1,56,0.00,,---,0.00,VWS V14.01,2013-02-20 11:07:00,
2013-02-20 05:12:00,9.1,-3.4,29.44,NW,315,4.3,5.6,56,0.00,,---,0.00,VWS V14.01,2013-02-20 11:12:00,
2013-02-20 05:17:00,9.3,-3.2,29.44,WNW,292,2.5,5.6,56,0.00,,---,0.00,VWS V14.01,2013-02-20 11:17:00,
2013-02-20 05:22:00,9.3,-3.2,29.47,NNW,338,4.3,4.3,56,0.00,,---,0.00,VWS V14.01,2013-02-20 11:22:00,
2013-02-20 05:27:00,9.1,-3.4,29.47,NW,315,2.5,3.4,56,0.00,,---,0.00,VWS V14.01,2013-02-20 11:27:00,
2013-02-20 05:32:00,9.1,-3.4,29.47,NNW,338,2.9,6.3,56,0.00,,---,0.00,VWS V14.01,2013-02-20 11:32:00,
2013-02-20 05:37:00,8.8,-3.7,29.44,NNE,22,4.0,4.0,56,0.00,,---,0.00,VWS V14.01,2013-02-20 11:37:00,
2013-02-20 05:42:00,8.8,-3.7,29.44,WNW,292,3.4,3.4,56,0.00,,---,0.00,VWS V14.01,2013-02-20 11:42:00,
2013-02-20 05:47:00,8.6,-3.9,29.44,NNW,338,4.3,6.0,56,0.00,,---,0.00,VWS V14.01,2013-02-20 11:47:00,
2013-02-20 05:52:00,8.2,-4.2,29.44,NW,315,4.3,4.3,56,0.00,,---,0.00,VWS V14.01,2013-02-20 11:52:00,
2013-02-20 05:57:00,8.2,-4.2,29.44,NW,315,4.3,4.3,56,0.00,,---,0.00,VWS V14.01,2013-02-20 11:57:00,
2013-02-20 06:02:00,8.1,-4.4,29.44,WNW,292,3.1,3.8,56,0.00,,---,0.00,VWS V14.01,2013-02-20 12:02:00,
2013-02-20 06:07:00,8.4,-4.0,29.44,NNW,338,3.1,3.1,56,0.00,,---,0.00,VWS V14.01,2013-02-20 12:07:00,
2013-02-20 06:12:00,8.8,-3.7,29.44,NNW,338,2.9,3.8,56,0.00,,---,0.00,VWS V14.01,2013-02-20 12:12:00,
2013-02-20 06:17:00,8.4,-4.0,29.44,West,270,3.1,3.1,56,0.00,,---,0.00,VWS V14.01,2013-02-20 12:17:00,
2013-02-20 06:22:00,8.4,-4.0,29.47,NW,315,2.0,3.6,56,0.00,,---,0.00,VWS V14.01,2013-02-20 12:22:00,
2013-02-20 06:27:00,8.2,-4.2,29.47,NNW,338,3.4,7.2,56,0.00,,---,0.00,VWS V14.01,2013-02-20 12:27:00,
2013-02-20 06:32:00,8.1,-4.4,29.47,NNE,22,6.3,6.3,56,0.00,,---,0.00,VWS V14.01,2013-02-20 12:32:00,
2013-02-20 06:37:00,8.1,-4.4,29.47,NNW,338,5.4,5.4,56,0.00,,---,0.00,VWS V14.01,2013-02-20 12:37:00,
2013-02-20 06:42:00,7.9,-4.6,29.47,North,0,5.4,5.4,56,0.00,,---,0.00,VWS V14.01,2013-02-20 12:42:00,
2013-02-20 06:47:00,7.7,-4.7,29.47,NNW,338,6.3,6.3,56,0.00,,---,0.00,VWS V14.01,2013-02-20 12:47:00,
2013-02-20 06:52:00,7.7,-4.7,29.47,NNW,338,4.3,4.3,56,0.00,,---,0.00,VWS V14.01,2013-02-20 12:52:00,
2013-02-20 06:57:00,7.9,-4.6,29.47,West,270,3.8,3.8,56,0.00,,---,0.00,VWS V14.01,2013-02-20 12:57:00,
2013-02-20 07:02:00,8.1,-4.4,29.47,NW,315,3.1,3.1,56,0.00,,---,0.00,VWS V14.01,2013-02-20 13:02:00,
2013-02-20 07:07:00,8.1,-4.4,29.47,NNW,338,2.9,2.9,56,0.00,,---,0.00,VWS V14.01,2013-02-20 13:07:00,
2013-02-20 07:12:00,8.2,-4.2,29.47,West,270,4.3,4.3,56,0.00,,---,0.00,VWS V14.01,2013-02-20 13:12:00,
2013-02-20 07:17:00,8.4,-4.0,29.47,WNW,292,2.7,4.0,56,0.00,,---,0.00,VWS V14.01,2013-02-20 13:17:00,
2013-02-20 07:22:00,9.0,-3.5,29.50,NW,315,4.0,4.5,56,0.00,,---,0.00,VWS V14.01,2013-02-20 13:22:00,
2013-02-20 07:27:00,9.1,-3.4,29.50,NW,315,2.5,3.8,56,0.00,,---,0.00,VWS V14.01,2013-02-20 13:27:00,
2013-02-20 07:32:00,9.5,-3.0,29.50,West,270,4.0,4.0,56,0.00,,---,0.00,VWS V14.01,2013-02-20 13:32:00,
2013-02-20 07:37:00,9.5,-3.0,29.50,West,270,2.5,2.5,56,0.00,,---,0.00,VWS V14.01,2013-02-20 13:37:00,
2013-02-20 07:42:00,9.5,-3.0,29.50,West,270,1.6,3.1,56,0.00,,---,0.00,VWS V14.01,2013-02-20 13:42:00,
2013-02-20 07:47:00,9.7,-2.8,29.50,NNW,338,2.0,2.5,56,0.00,,---,0.00,VWS V14.01,2013-02-20 13:47:00,
2013-02-20 07:52:00,9.7,-2.8,29.50,North,0,3.6,5.8,56,0.00,,---,0.00,VWS V14.01,2013-02-20 13:52:00,
2013-02-20 07:57:00,10.0,-2.5,29.50,WNW,292,2.0,4.3,56,0.00,,---,0.00,VWS V14.01,2013-02-20 13:57:00,
2013-02-20 08:02:00,10.0,-2.5,29.50,NNW,338,2.9,3.1,56,0.00,,---,0.00,VWS V14.01,2013-02-20 14:02:00,
2013-02-20 08:07:00,10.2,-2.3,29.50,WNW,292,3.1,4.3,56,0.00,,---,0.00,VWS V14.01,2013-02-20 14:07:00,
2013-02-20 08:12:00,10.8,-1.8,29.50,North,0,2.5,3.4,56,0.00,,---,0.00,VWS V14.01,2013-02-20 14:12:00,
2013-02-20 08:17:00,10.8,-1.8,29.50,WNW,292,3.4,4.7,56,0.00,,---,0.00,VWS V14.01,2013-02-20 14:17:00,
2013-02-20 08:22:00,11.1,-1.5,29.50,West,270,3.8,3.8,56,0.00,,---,0.00,VWS V14.01,2013-02-20 14:22:00,
2013-02-20 08:27:00,11.5,-1.2,29.50,NW,315,2.7,6.3,56,0.00,,---,0.00,VWS V14.01,2013-02-20 14:27:00,
2013-02-20 08:32:00,11.1,-1.5,29.50,NW,315,3.6,3.6,56,0.00,,---,0.00,VWS V14.01,2013-02-20 14:32:00,
2013-02-20 08:37:00,10.9,-1.7,29.50,NNW,338,4.9,4.9,56,0.00,,---,0.00,VWS V14.01,2013-02-20 14:37:00,
2013-02-20 08:42:00,11.5,-1.2,29.50,NW,315,4.9,4.9,56,0.00,,---,0.00,VWS V14.01,2013-02-20 14:42:00,
2013-02-20 08:47:00,12.2,-0.5,29.50,NW,315,4.0,4.0,56,0.00,,---,0.00,VWS V14.01,2013-02-20 14:47:00,
2013-02-20 08:52:00,12.6,-0.2,29.50,NW,315,3.4,4.0,56,0.00,,---,0.00,VWS V14.01,2013-02-20 14:52:00,
2013-02-20 08:57:00,12.7,0.0,29.50,NNW,338,3.8,4.0,56,0.00,,---,0.00,VWS V14.01,2013-02-20 14:57:00,
2013-02-20 09:02:00,12.7,0.0,29.50,WSW,248,2.0,3.8,56,0.00,,---,0.00,VWS V14.01,2013-02-20 15:02:00,
2013-02-20 09:07:00,12.9,0.2,29.50,North,0,3.1,3.1,56,0.00,,---,0.00,VWS V14.01,2013-02-20 15:07:00,
2013-02-20 09:12:00,12.9,0.2,29.50,NNE,22,3.6,3.8,56,0.00,,---,0.00,VWS V14.01,2013-02-20 15:12:00,
2013-02-20 09:17:00,13.3,0.5,29.50,North,0,2.5,4.0,56,0.00,,---,0.00,VWS V14.01,2013-02-20 15:17:00,
2013-02-20 09:22:00,14.2,1.4,29.50,WNW,292,6.5,6.5,56,0.00,,---,0.00,VWS V14.01,2013-02-20 15:22:00,
2013-02-20 09:27:00,14.2,1.4,29.50,NW,315,3.1,4.0,56,0.00,,---,0.00,VWS V14.01,2013-02-20 15:27:00,
2013-02-20 09:32:00,14.5,1.7,29.50,WNW,292,3.6,6.7,56,0.00,,---,0.00,VWS V14.01,2013-02-20 15:32:00,
2013-02-20 09:37:00,14.5,1.7,29.53,WNW,292,6.0,6.0,56,0.00,,---,0.00,VWS V14.01,2013-02-20 15:37:00,
2013-02-20 09:42:00,15.3,2.4,29.53,NW,315,4.3,4.3,56,0.00,,---,0.00,VWS V14.01,2013-02-20 15:42:00,
2013-02-20 09:47:00,15.4,2.6,29.53,West,270,3.4,4.9,56,0.00,,---,0.00,VWS V14.01,2013-02-20 15:47:00,
2013-02-20 09:52:00,15.4,2.2,29.53,NW,315,4.0,4.0,55,0.00,,---,0.00,VWS V14.01,2013-02-20 15:52:00,
2013-02-20 09:57:00,16.2,2.8,29.53,WNW,292,4.0,5.4,55,0.00,,---,0.00,VWS V14.01,2013-02-20 15:57:00,
2013-02-20 10:02:00,16.5,3.2,29.53,NW,315,2.9,3.8,55,0.00,,---,0.00,VWS V14.01,2013-02-20 16:02:00,
2013-02-20 10:07:00,16.3,3.0,29.53,NNW,338,3.1,4.0,55,0.00,,---,0.00,VWS V14.01,2013-02-20 16:07:00,
2013-02-20 10:12:00,17.1,3.7,29.53,West,270,6.3,6.3,55,0.00,,---,0.00,VWS V14.01,2013-02-20 16:12:00,
2013-02-20 10:17:00,17.1,3.7,29.53,West,270,3.8,4.9,55,0.00,,---,0.00,VWS V14.01,2013-02-20 16:17:00,
2013-02-20 10:22:00,17.1,3.7,29.53,NNW,338,3.1,4.0,55,0.00,,---,0.00,VWS V14.01,2013-02-20 16:22:00,
2013-02-20 10:27:00,18.0,4.5,29.53,NW,315,2.0,2.5,55,0.00,,---,0.00,VWS V14.01,2013-02-20 16:27:00,
2013-02-20 10:32:00,18.5,5.0,29.53,NW,315,3.4,3.6,55,0.00,,---,0.00,VWS V14.01,2013-02-20 16:32:00,
2013-02-20 10:37:00,18.9,5.4,29.53,WSW,248,3.6,3.6,55,0.00,,---,0.00,VWS V14.01,2013-02-20 16:37:00,
2013-02-20 10:42:00,19.4,5.9,29.53,WNW,292,2.7,2.7,55,0.00,,---,0.00,VWS V14.01,2013-02-20 16:42:00,
2013-02-20 10:47:00,19.9,6.0,29.53,West,270,2.7,5.4,54,0.00,,---,0.00,VWS V14.01,2013-02-20 16:47:00,
2013-02-20 10:52:00,20.3,6.3,29.53,West,270,4.7,4.7,54,0.00,,---,0.00,VWS V14.01,2013-02-20 16:52:00,
2013-02-20 10:57:00,20.1,6.2,29.53,North,0,1.1,2.2,54,0.00,,---,0.00,VWS V14.01,2013-02-20 16:57:00,
2013-02-20 11:02:00,20.3,6.3,29.53,North,0,5.6,5.6,54,0.00,,---,0.00,VWS V14.01,2013-02-20 17:02:00,
2013-02-20 11:07:00,20.7,6.7,29.53,NNE,22,3.6,3.6,54,0.00,,---,0.00,VWS V14.01,2013-02-20 17:07:00,
2013-02-20 11:12:00,21.0,7.0,29.53,WSW,248,4.7,4.7,54,0.00,,---,0.00,VWS V14.01,2013-02-20 17:12:00,
2013-02-20 11:17:00,21.4,7.3,29.53,SW,225,3.4,3.4,54,0.00,,---,0.00,VWS V14.01,2013-02-20 17:17:00,
2013-02-20 11:22:00,21.6,7.1,29.53,West,270,4.3,4.3,53,0.00,,---,0.00,VWS V14.01,2013-02-20 17:22:00,
2013-02-20 11:27:00,21.4,6.9,29.53,WSW,248,6.0,6.0,53,0.00,,---,0.00,VWS V14.01,2013-02-20 17:27:00,
2013-02-20 11:32:00,21.6,7.1,29.53,West,270,3.1,4.7,53,0.00,,---,0.00,VWS V14.01,2013-02-20 17:32:00,
2013-02-20 11:37:00,21.9,7.8,29.53,WSW,248,3.6,4.0,54,0.00,,---,0.00,VWS V14.01,2013-02-20 17:37:00,
2013-02-20 11:42:00,22.3,7.8,29.53,West,270,7.6,7.6,53,0.00,,---,0.00,VWS V14.01,2013-02-20 17:42:00,
2013-02-20 11:47:00,22.8,8.3,29.53,West,270,5.8,5.8,53,0.00,,---,0.00,VWS V14.01,2013-02-20 17:47:00,
2013-02-20 11:53:00,22.8,8.3,29.53,West,270,2.9,2.9,53,0.00,,---,0.00,VWS V14.01,2013-02-20 17:53:00,
2013-02-20 11:58:00,23.0,8.4,29.53,WSW,248,7.4,7.4,53,0.00,,---,0.00,VWS V14.01,2013-02-20 17:58:00,
2013-02-20 12:03:00,23.7,8.7,29.53,SW,225,4.0,4.0,52,0.00,,---,0.00,VWS V14.01,2013-02-20 18:03:00,
2013-02-20 12:08:00,23.7,9.1,29.53,WSW,248,2.0,3.6,53,0.00,,---,0.00,VWS V14.01,2013-02-20 18:08:00,
2013-02-20 12:13:00,23.9,8.9,29.53,West,270,4.0,4.9,52,0.00,,---,0.00,VWS V14.01,2013-02-20 18:13:00,
2013-02-20 12:18:00,24.3,9.2,29.53,West,270,5.4,10.7,52,0.00,,---,0.00,VWS V14.01,2013-02-20 18:18:00,
2013-02-20 12:23:00,24.3,9.2,29.53,NW,315,4.3,7.2,52,0.00,,---,0.00,VWS V14.01,2013-02-20 18:23:00,
2013-02-20 12:28:00,24.1,9.0,29.53,NNW,338,4.9,4.9,52,0.00,,---,0.00,VWS V14.01,2013-02-20 18:28:00,
2013-02-20 12:33:00,24.4,9.4,29.53,SSW,202,4.9,4.9,52,0.00,,---,0.00,VWS V14.01,2013-02-20 18:33:00,
2013-02-20 12:38:00,24.8,9.7,29.53,WSW,248,8.5,8.5,52,0.00,,---,0.00,VWS V14.01,2013-02-20 18:38:00,
2013-02-20 12:43:00,24.8,9.7,29.53,West,270,5.4,5.4,52,0.00,,---,0.00,VWS V14.01,2013-02-20 18:43:00,
2013-02-20 12:48:00,25.0,9.9,29.53,WSW,248,3.1,3.1,52,0.00,,---,0.00,VWS V14.01,2013-02-20 18:48:00,
2013-02-20 12:53:00,25.3,9.8,29.53,WSW,248,2.0,4.3,51,0.00,,---,0.00,VWS V14.01,2013-02-20 18:53:00,
2013-02-20 12:58:00,25.3,9.8,29.53,SW,225,4.3,4.3,51,0.00,,---,0.00,VWS V14.01,2013-02-20 18:58:00,
2013-02-20 13:03:00,25.5,9.9,29.53,West,270,5.6,6.3,51,0.00,,---,0.00,VWS V14.01,2013-02-20 19:03:00,
2013-02-20 13:08:00,26.1,10.9,29.50,West,270,9.0,9.0,52,0.00,,---,0.00,VWS V14.01,2013-02-20 19:08:00,
2013-02-20 13:13:00,25.9,10.3,29.50,North,0,6.7,6.7,51,0.00,,---,0.00,VWS V14.01,2013-02-20 19:13:00,
2013-02-20 13:18:00,25.2,9.6,29.50,West,270,6.5,6.5,51,0.00,,---,0.00,VWS V14.01,2013-02-20 19:18:00,
2013-02-20 13:23:00,25.3,9.8,29.50,NNE,22,2.9,3.6,51,0.00,,---,0.00,VWS V14.01,2013-02-20 19:23:00,
2013-02-20 13:28:00,25.5,10.4,29.50,NNE,22,3.4,4.3,52,0.00,,---,0.00,VWS V14.01,2013-02-20 19:28:00,
2013-02-20 13:33:00,25.9,10.7,29.50,North,0,1.6,3.8,52,0.00,,---,0.00,VWS V14.01,2013-02-20 19:33:00,
2013-02-20 13:38:00,25.7,10.5,29.50,West,270,5.6,5.6,52,0.00,,---,0.00,VWS V14.01,2013-02-20 19:38:00,
2013-02-20 13:43:00,25.7,10.1,29.50,West,270,4.7,4.7,51,0.00,,---,0.00,VWS V14.01,2013-02-20 19:43:00,
2013-02-20 13:48:00,25.9,10.3,29.50,NNW,338,2.9,3.1,51,0.00,,---,0.00,VWS V14.01,2013-02-20 19:48:00,
2013-02-20 13:53:00,25.7,10.1,29.50,WNW,292,2.5,5.4,51,0.00,,---,0.00,VWS V14.01,2013-02-20 19:53:00,
2013-02-20 13:58:00,25.9,10.3,29.50,NNW,338,3.1,3.1,51,0.00,,---,0.00,VWS V14.01,2013-02-20 19:58:00,
2013-02-20 14:03:00,26.1,10.9,29.50,NNW,338,3.6,4.3,52,0.00,,---,0.00,VWS V14.01,2013-02-20 20:03:00,
2013-02-20 14:08:00,25.7,10.1,29.50,NNW,338,4.9,4.9,51,0.00,,---,0.00,VWS V14.01,2013-02-20 20:08:00,
2013-02-20 14:13:00,25.7,10.5,29.50,NNW,338,7.6,7.6,52,0.00,,---,0.00,VWS V14.01,2013-02-20 20:13:00,
2013-02-20 14:18:00,26.1,10.9,29.50,NW,315,3.1,3.6,52,0.00,,---,0.00,VWS V14.01,2013-02-20 20:18:00,
2013-02-20 14:23:00,26.2,11.0,29.47,WSW,248,8.7,8.7,52,0.00,,---,0.00,VWS V14.01,2013-02-20 20:23:00,
2013-02-20 14:28:00,26.1,10.9,29.47,WNW,292,3.1,3.6,52,0.00,,---,0.00,VWS V14.01,2013-02-20 20:28:00,
2013-02-20 14:33:00,26.4,11.2,29.47,NW,315,6.3,6.3,52,0.00,,---,0.00,VWS V14.01,2013-02-20 20:33:00,
2013-02-20 14:38:00,25.9,10.7,29.47,North,0,1.6,3.1,52,0.00,,---,0.00,VWS V14.01,2013-02-20 20:38:00,
2013-02-20 14:43:00,25.9,10.7,29.47,NNW,338,2.7,3.4,52,0.00,,---,0.00,VWS V14.01,2013-02-20 20:43:00,
2013-02-20 14:48:00,26.1,10.9,29.47,NW,315,5.4,5.6,52,0.00,,---,0.00,VWS V14.01,2013-02-20 20:48:00,
2013-02-20 14:53:00,25.9,10.7,29.47,NNW,338,6.5,6.5,52,0.00,,---,0.00,VWS V14.01,2013-02-20 20:53:00,
2013-02-20 14:58:00,25.5,10.4,29.47,WNW,292,3.8,4.0,52,0.00,,---,0.00,VWS V14.01,2013-02-20 20:58:00,
2013-02-20 15:03:00,25.3,10.2,29.47,North,0,6.3,6.5,52,0.00,,---,0.00,VWS V14.01,2013-02-20 21:03:00,
2013-02-20 15:08:00,24.8,9.7,29.47,NNW,338,5.4,5.4,52,0.00,,---,0.00,VWS V14.01,2013-02-20 21:08:00,
2013-02-20 15:13:00,25.2,10.0,29.47,NW,315,5.4,5.4,52,0.00,,---,0.00,VWS V14.01,2013-02-20 21:13:00,
2013-02-20 15:18:00,25.2,10.0,29.47,WNW,292,4.0,4.0,52,0.00,,---,0.00,VWS V14.01,2013-02-20 21:18:00,
2013-02-20 15:23:00,24.6,9.5,29.47,NW,315,4.0,6.5,52,0.00,,---,0.00,VWS V14.01,2013-02-20 21:23:00,
2013-02-20 15:28:00,24.8,9.7,29.47,WNW,292,4.7,4.7,52,0.00,,---,0.00,VWS V14.01,2013-02-20 21:28:00,
2013-02-20 15:33:00,24.8,9.7,29.47,NNW,338,4.9,4.9,52,0.00,,---,0.00,VWS V14.01,2013-02-20 21:33:00,
2013-02-20 15:38:00,25.2,10.0,29.47,North,0,4.7,4.7,52,0.00,,---,0.00,VWS V14.01,2013-02-20 21:38:00,
2013-02-20 15:43:00,25.0,9.9,29.47,NNW,338,4.0,4.0,52,0.00,,---,0.00,VWS V14.01,2013-02-20 21:43:00,
2013-02-20 15:48:00,25.2,10.0,29.47,NNW,338,4.0,4.0,52,0.00,,---,0.00,VWS V14.01,2013-02-20 21:48:00,
2013-02-20 15:53:00,25.2,10.0,29.47,North,0,3.1,4.0,52,0.00,,---,0.00,VWS V14.01,2013-02-20 21:53:00,
2013-02-20 15:58:00,25.0,9.9,29.47,NW,315,1.3,2.7,52,0.00,,---,0.00,VWS V14.01,2013-02-20 21:58:00,
2013-02-20 16:03:00,24.8,10.1,29.47,North,0,5.6,5.6,53,0.00,,---,0.00,VWS V14.01,2013-02-20 22:03:00,
2013-02-20 16:08:00,24.4,9.8,29.47,NNE,22,2.9,2.9,53,0.00,,---,0.00,VWS V14.01,2013-02-20 22:08:00,
2013-02-20 16:13:00,24.6,9.9,29.47,West,270,3.1,3.1,53,0.00,,---,0.00,VWS V14.01,2013-02-20 22:13:00,
2013-02-20 16:18:00,24.4,9.8,29.47,WNW,292,4.0,4.0,53,0.00,,---,0.00,VWS V14.01,2013-02-20 22:18:00,
2013-02-20 16:23:00,24.4,9.8,29.50,WNW,292,4.0,4.0,53,0.00,,---,0.00,VWS V14.01,2013-02-20 22:23:00,
2013-02-20 16:28:00,24.8,10.1,29.50,West,270,3.4,3.4,53,0.00,,---,0.00,VWS V14.01,2013-02-20 22:28:00,
2013-02-20 16:33:00,24.8,10.1,29.50,NNW,338,4.3,4.3,53,0.00,,---,0.00,VWS V14.01,2013-02-20 22:33:00,
2013-02-20 16:38:00,24.4,9.8,29.50,North,0,2.7,3.6,53,0.00,,---,0.00,VWS V14.01,2013-02-20 22:38:00,
2013-02-20 16:43:00,24.3,9.6,29.50,NW,315,2.2,2.9,53,0.00,,---,0.00,VWS V14.01,2013-02-20 22:43:00,
2013-02-20 16:48:00,24.3,9.6,29.50,NW,315,2.0,2.9,53,0.00,,---,0.00,VWS V14.01,2013-02-20 22:48:00,
2013-02-20 16:53:00,23.7,9.1,29.50,North,0,2.7,3.4,53,0.00,,---,0.00,VWS V14.01,2013-02-20 22:53:00,
2013-02-20 16:59:00,23.9,9.7,29.50,West,270,4.9,4.9,54,0.00,,---,0.00,VWS V14.01,2013-02-20 22:59:00,
2013-02-20 17:04:00,23.9,9.7,29.50,WNW,292,3.4,3.8,54,0.00,,---,0.00,VWS V14.01,2013-02-20 23:04:00,
2013-02-20 17:09:00,23.7,9.5,29.50,NNW,338,2.7,2.7,54,0.00,,---,0.00,VWS V14.01,2013-02-20 23:09:00,
2013-02-20 17:14:00,23.5,8.9,29.50,WNW,292,2.9,2.9,53,0.00,,---,0.00,VWS V14.01,2013-02-20 23:14:00,
2013-02-20 17:19:00,23.4,9.2,29.47,WNW,292,2.2,2.2,54,0.00,,---,0.00,VWS V14.01,2013-02-20 23:19:00,
2013-02-20 17:24:00,23.0,8.9,29.47,NNW,338,2.5,2.5,54,0.00,,---,0.00,VWS V14.01,2013-02-20 23:24:00,
2013-02-20 17:29:00,23.0,8.9,29.47,NNW,338,3.8,3.8,54,0.00,,---,0.00,VWS V14.01,2013-02-20 23:29:00,
2013-02-20 17:34:00,23.2,9.0,29.47,NW,315,2.2,2.7,54,0.00,,---,0.00,VWS V14.01,2013-02-20 23:34:00,
2013-02-20 17:39:00,23.2,9.0,29.47,NNW,338,3.1,3.1,54,0.00,,---,0.00,VWS V14.01,2013-02-20 23:39:00,
2013-02-20 17:44:00,22.8,8.7,29.47,WNW,292,0.0,0.0,54,0.00,,---,0.00,VWS V14.01,2013-02-20 23:44:00,
2013-02-20 17:49:00,22.8,8.7,29.47,NW,315,2.5,2.5,54,0.00,,---,0.00,VWS V14.01,2013-02-20 23:49:00,
2013-02-20 17:54:00,22.8,9.1,29.47,NW,315,1.3,1.6,55,0.00,,---,0.00,VWS V14.01,2013-02-20 23:54:00,
2013-02-20 17:59:00,22.8,9.1,29.47,NNW,338,1.3,3.8,55,0.00,,---,0.00,VWS V14.01,2013-02-20 23:59:00,
2013-02-20 18:04:00,22.8,9.1,29.47,WNW,292,2.0,2.0,55,0.00,,---,0.00,VWS V14.01,2013-02-21 00:04:00,
2013-02-20 18:09:00,22.8,9.1,29.47,NW,315,2.5,2.5,55,0.00,,---,0.00,VWS V14.01,2013-02-21 00:09:00,
2013-02-20 18:14:00,22.3,8.6,29.47,NNW,338,2.0,2.7,55,0.00,,---,0.00,VWS V14.01,2013-02-21 00:14:00,
2013-02-20 18:19:00,22.1,8.4,29.47,NW,315,0.0,1.1,55,0.00,,---,0.00,VWS V14.01,2013-02-21 00:19:00,
2013-02-20 18:24:00,21.9,8.2,29.47,NNE,22,2.7,2.7,55,0.00,,---,0.00,VWS V14.01,2013-02-21 00:24:00,
2013-02-20 18:29:00,21.7,8.1,29.47,NNE,22,5.6,5.6,55,0.00,,---,0.00,VWS V14.01,2013-02-21 00:29:00,
2013-02-20 18:34:00,21.6,7.9,29.47,NNE,22,0.9,1.6,55,0.00,,---,0.00,VWS V14.01,2013-02-21 00:34:00,
2013-02-20 18:39:00,21.4,7.7,29.47,North,0,3.1,3.1,55,0.00,,---,0.00,VWS V14.01,2013-02-21 00:39:00,
2013-02-20 18:44:00,21.4,7.7,29.47,North,0,3.1,3.1,55,0.00,,---,0.00,VWS V14.01,2013-02-21 00:44:00,
2013-02-20 18:49:00,21.4,7.7,29.47,North,0,2.7,2.7,55,0.00,,---,0.00,VWS V14.01,2013-02-21 00:49:00,
2013-02-20 18:54:00,21.2,8.0,29.47,NNE,22,1.3,2.0,56,0.00,,---,0.00,VWS V14.01,2013-02-21 00:54:00,
2013-02-20 18:59:00,21.0,7.8,29.47,North,0,3.4,3.4,56,0.00,,---,0.00,VWS V14.01,2013-02-21 00:59:00,
2013-02-20 19:04:00,20.8,7.6,29.47,NE,45,2.5,2.5,56,0.00,,---,0.00,VWS V14.01,2013-02-21 01:04:00,
2013-02-20 19:09:00,20.8,7.6,29.47,NNE,22,2.9,2.9,56,0.00,,---,0.00,VWS V14.01,2013-02-21 01:09:00,
2013-02-20 19:14:00,20.8,7.6,29.47,NE,45,2.7,2.7,56,0.00,,---,0.00,VWS V14.01,2013-02-21 01:14:00,
2013-02-20 19:19:00,20.5,7.3,29.47,NNE,22,3.1,4.0,56,0.00,,---,0.00,VWS V14.01,2013-02-21 01:19:00,
2013-02-20 19:24:00,20.5,7.7,29.47,NNE,22,0.0,1.3,57,0.00,,---,0.00,VWS V14.01,2013-02-21 01:24:00,
2013-02-20 19:29:00,20.5,7.7,29.47,WNW,292,0.9,3.4,57,0.00,,---,0.00,VWS V14.01,2013-02-21 01:29:00,
2013-02-20 19:34:00,20.7,7.8,29.47,North,0,0.0,0.9,57,0.00,,---,0.00,VWS V14.01,2013-02-21 01:34:00,
2013-02-20 19:39:00,20.3,7.5,29.47,NNE,22,2.0,2.2,57,0.00,,---,0.00,VWS V14.01,2013-02-21 01:39:00,
2013-02-20 19:44:00,20.3,7.5,29.47,NNE,22,2.7,2.7,57,0.00,,---,0.00,VWS V14.01,2013-02-21 01:44:00,
2013-02-20 19:49:00,20.3,7.5,29.47,NNE,22,2.5,2.9,57,0.00,,---,0.00,VWS V14.01,2013-02-21 01:49:00,
2013-02-20 19:54:00,20.1,7.3,29.47,NNE,22,0.0,2.9,57,0.00,,---,0.00,VWS V14.01,2013-02-21 01:54:00,
2013-02-20 19:59:00,20.1,7.7,29.47,NE,45,2.5,2.5,58,0.00,,---,0.00,VWS V14.01,2013-02-21 01:59:00,
2013-02-20 20:04:00,19.9,7.6,29.47,NNE,22,1.6,2.5,58,0.00,,---,0.00,VWS V14.01,2013-02-21 02:04:00,
2013-02-20 20:09:00,19.9,7.6,29.47,NNE,22,0.0,1.3,58,0.00,,---,0.00,VWS V14.01,2013-02-21 02:09:00,
2013-02-20 20:14:00,20.1,7.7,29.47,NNE,22,2.5,2.5,58,0.00,,---,0.00,VWS V14.01,2013-02-21 02:14:00,
2013-02-20 20:19:00,20.1,7.7,29.47,NNE,22,2.7,2.7,58,0.00,,---,0.00,VWS V14.01,2013-02-21 02:19:00,
2013-02-20 20:24:00,19.8,7.4,29.47,NNE,22,5.4,5.4,58,0.00,,---,0.00,VWS V14.01,2013-02-21 02:24:00,
2013-02-20 20:29:00,19.8,7.4,29.47,ENE,68,2.7,2.7,58,0.00,,---,0.00,VWS V14.01,2013-02-21 02:29:00,
2013-02-20 20:34:00,19.8,7.4,29.47,NNE,22,3.4,3.4,58,0.00,,---,0.00,VWS V14.01,2013-02-21 02:34:00,
2013-02-20 20:39:00,19.6,7.2,29.47,North,0,2.5,3.4,58,0.00,,---,0.00,VWS V14.01,2013-02-21 02:39:00,
2013-02-20 20:44:00,19.4,7.4,29.47,North,0,2.9,2.9,59,0.00,,---,0.00,VWS V14.01,2013-02-21 02:44:00,
2013-02-20 20:49:00,19.4,7.4,29.47,NNE,22,2.0,2.7,59,0.00,,---,0.00,VWS V14.01,2013-02-21 02:49:00,
2013-02-20 20:54:00,19.4,7.4,29.47,North,0,0.0,0.0,59,0.00,,---,0.00,VWS V14.01,2013-02-21 02:54:00,
2013-02-20 20:59:00,19.4,7.4,29.47,NE,45,2.5,2.5,59,0.00,,---,0.00,VWS V14.01,2013-02-21 02:59:00,
2013-02-20 21:04:00,19.4,7.4,29.47,NNE,22,3.8,3.8,59,0.00,,---,0.00,VWS V14.01,2013-02-21 03:04:00,
2013-02-20 21:09:00,19.4,7.4,29.47,North,0,1.6,1.6,59,0.00,,---,0.00,VWS V14.01,2013-02-21 03:09:00,
2013-02-20 21:14:00,19.2,7.6,29.47,NNE,22,2.0,2.0,60,0.00,,---,0.00,VWS V14.01,2013-02-21 03:14:00,
2013-02-20 21:19:00,19.2,7.6,29.47,NNE,22,3.4,3.4,60,0.00,,---,0.00,VWS V14.01,2013-02-21 03:19:00,
2013-02-20 21:24:00,19.2,7.6,29.47,NNE,22,1.6,1.6,60,0.00,,---,0.00,VWS V14.01,2013-02-21 03:24:00,
2013-02-20 21:29:00,19.2,7.6,29.47,NNW,338,3.6,3.6,60,0.00,,---,0.00,VWS V14.01,2013-02-21 03:29:00,
2013-02-20 21:34:00,19.2,7.6,29.50,NNE,22,1.6,1.6,60,0.00,,---,0.00,VWS V14.01,2013-02-21 03:34:00,
2013-02-20 21:39:00,19.2,7.6,29.50,NNE,22,2.2,3.4,60,0.00,,---,0.00,VWS V14.01,2013-02-21 03:39:00,
2013-02-20 21:44:00,19.2,7.6,29.50,ENE,68,1.3,3.6,60,0.00,,---,0.00,VWS V14.01,2013-02-21 03:44:00,
2013-02-20 21:49:00,19.2,7.6,29.50,NE,45,2.7,2.7,60,0.00,,---,0.00,VWS V14.01,2013-02-21 03:49:00,
2013-02-20 21:54:00,19.2,7.6,29.50,NNE,22,1.6,1.6,60,0.00,,---,0.00,VWS V14.01,2013-02-21 03:54:00,
2013-02-20 21:59:00,19.0,7.4,29.50,NNE,22,1.3,2.0,60,0.00,,---,0.00,VWS V14.01,2013-02-21 03:59:00,
2013-02-20 22:04:00,19.0,7.8,29.50,NE,45,1.6,2.7,61,0.00,,---,0.00,VWS V14.01,2013-02-21 04:04:00,
2013-02-20 22:09:00,19.0,7.8,29.50,NNE,22,2.9,2.9,61,0.00,,---,0.00,VWS V14.01,2013-02-21 04:09:00,
2013-02-20 22:14:00,19.0,7.8,29.50,NNE,22,2.7,4.9,61,0.00,,---,0.00,VWS V14.01,2013-02-21 04:14:00,
2013-02-20 22:19:00,18.9,8.4,29.50,ENE,68,2.0,2.2,63,0.00,,---,0.00,VWS V14.01,2013-02-21 04:19:00,
2013-02-20 22:24:00,18.7,7.8,29.50,NNE,22,2.5,2.5,62,0.00,,---,0.00,VWS V14.01,2013-02-21 04:24:00,
2013-02-20 22:29:00,18.7,8.2,29.50,NNE,22,3.6,4.9,63,0.00,,---,0.00,VWS V14.01,2013-02-21 04:29:00,
2013-02-20 22:34:00,18.7,8.2,29.47,East,90,2.5,2.9,63,0.00,,---,0.00,VWS V14.01,2013-02-21 04:34:00,
2013-02-20 22:39:00,18.7,8.2,29.47,NNE,22,0.0,2.2,63,0.00,,---,0.00,VWS V14.01,2013-02-21 04:39:00,
2013-02-20 22:44:00,18.7,8.2,29.47,North,0,2.5,3.1,63,0.00,,---,0.00,VWS V14.01,2013-02-21 04:44:00,
2013-02-20 22:49:00,18.5,8.0,29.47,NNW,338,2.2,2.9,63,0.00,,---,0.00,VWS V14.01,2013-02-21 04:49:00,
2013-02-20 22:54:00,18.5,8.0,29.47,NNE,22,4.0,4.0,63,0.00,,---,0.00,VWS V14.01,2013-02-21 04:54:00,
2013-02-20 22:59:00,18.5,8.0,29.47,NNE,22,3.4,3.4,63,0.00,,---,0.00,VWS V14.01,2013-02-21 04:59:00,
2013-02-20 23:00:00,18.5,8.0,29.47,NW,315,1.3,3.4,63,0.00,,---,0.00,VWS V14.01,2013-02-21 05:00:00,
2013-02-20 23:05:00,18.5,8.4,29.47,NNE,22,3.8,3.8,64,0.00,,---,0.00,VWS V14.01,2013-02-21 05:05:00,
2013-02-20 23:10:00,18.5,8.0,29.50,NNE,22,2.2,3.6,63,0.00,,---,0.00,VWS V14.01,2013-02-21 05:10:00,
2013-02-20 23:15:00,18.5,8.0,29.50,NE,45,2.5,2.5,63,0.00,,---,0.00,VWS V14.01,2013-02-21 05:15:00,
2013-02-20 23:20:00,18.3,8.2,29.50,NE,45,2.5,2.5,64,0.00,,---,0.00,VWS V14.01,2013-02-21 05:20:00,
2013-02-20 23:25:00,18.5,8.4,29.50,NNE,22,0.0,2.0,64,0.00,,---,0.00,VWS V14.01,2013-02-21 05:25:00,
2013-02-20 23:30:00,18.3,8.2,29.50,NNE,22,3.1,3.1,64,0.00,,---,0.00,VWS V14.01,2013-02-21 05:30:00,
2013-02-20 23:35:00,18.1,7.7,29.50,NNE,22,3.6,3.6,63,0.00,,---,0.00,VWS V14.01,2013-02-21 05:35:00,
2013-02-20 23:40:00,18.1,8.0,29.50,North,0,1.6,1.6,64,0.00,,---,0.00,VWS V14.01,2013-02-21 05:40:00,
2013-02-20 23:46:00,18.1,8.0,29.50,NNE,22,0.0,0.0,64,0.00,,---,0.00,VWS V14.01,2013-02-21 05:46:00,
2013-02-20 23:51:00,18.1,8.0,29.50,NE,45,2.9,2.9,64,0.00,,---,0.00,VWS V14.01,2013-02-21 05:51:00,
2013-02-20 23:56:00,18.1,8.0,29.50,NNE,22,1.6,1.6,64,0.00,,---,0.00,VWS V14.01,2013-02-21 05:56:00,